Showing default

OPS 9381 (GGTS), 2207

Orbit data source: Space-Track

OPS 9381 (GGTS), 2207 is a payload satellite owned by USAF SSD (US) in GEO that was launched on Thu, 16 Jun 1966 UTC via a TITAN IIIC launch vehicle from the Air Force Eastern Test Range (AFETR). Payloads include a variety of satellites, spacecraft, and rockets equipped with specific instruments for various scientific and technological missions. These include communications satellites like Starlink; space stations such as the ISS; scientific satellites like the Hubble; Earth observation satellites from companies like Planet Labs, Umbra, and HawkEye 360; GPS; miniature CubeSats for education and research; and military/defense satellites.

Not visible in the next 10 days
OPS 9381 (GGTS) details
Identifier
2207, 1966-053A
Orbit
GEO
Last TLE update8 hours ago
Origin
Flag of USUSAF SSD (US)
ManufacturerGE/MSVD
MissionNon-operational Defense Technology
Bus & MotorGGTS, Unknown motor
Mass47 kg wet, 47 kg dry
Launch date (UTC)
1966-06-16 (59 years ago)
Launch vehicle
TITAN IIIC
Launch site
Air Force Eastern Test Range (AFETR)
Object type
Payload
Rocket body
Debris
Shape & HBRPoly + 2 Rod, 32 m
Radar Cross Section0.926 m², Medium (>0.1 m² and < 1m²)

Expand to show TLE details & history

TLE from 8 hours ago
0 OPS 9381 (GGTS)
1 02207U 66053A   25015.63938307 -.00000063  00000-0  00000-0 0  9993
2 02207   7.6929  48.0841 0030398 223.8614 224.1387  1.08006687230378
Epoch: 2025-01-15T15:20Z
Definitive object data (Epoch: 2025-01-15T15:20:42.697Z)
Latitude7.71223°
Longitude150.3374°
Altitude33,835.795 km
Speed3.145 km/s
True Right ascension09h 03m 22s
True Declination7° 42' 15"
Sunlit
Object was in daylight at TLE epoch
Visualization TLE readout
Latitude-5.38726°
Longitude-73.27165°
Altitude33,626.731 km
Speed3.161 km/s
Apparent Right ascension17h 41m 16s
Apparent Declination-10° 55' 27"
Sunlit
Object is in daylight
Visualization observer readout
Local Sidereal Time00:28:01
Azimuth268.944° W
Elevation-15.912°
Doppler factor1
Orbital elements
Apogee altitude33,871.757 km
Perigee altitude33,627.795 km
Semi-major axis40,127.913 km
Eccentricity0.0030398
Inclination7.6929°
RAAN48.0841°
Arg. of periapsis223.8614°
True anomaly223.89678°
Mean anomaly224.1387°
Eccentric anomaly224.01767°
Mean motion0.27001 °/min
BSTARUnknown
Orbital period1333.3 mins
Loading historical data...
2207 neighbors
Authenticating...
Loading maneuver chart data...
Loading historical data...
Loading historical data...
Loading historical data...
Loading historical data...
Loading historical data...
Loading historical data...
Loading historical data...

OPS 9381 (GGTS) Visibility forecast

Observer location: undefined°, undefined

OPS 9381 (GGTS) is not visible in the next 10 days
Span
Click to sort rows by Start time (UTC) header in descending order
Start Az.
Max El. time (UTC)
Max El. Az.
Max El.
End time (UTC)
End Az.
|